| time (UTC) | temp C | wind direction | speed KPH | gust KPH | rain 1hr cm | rain 24hr cm | rain mn cm | humidity % | barometer mb |
| 20260504050328 | 5 | 246 | 0.0 | 0.0 | 0.00 | 0.00 | 0.00 | 69 | 1017.7 |
| 20260504045825 | 6 | 250 | 0.0 | 3.2 | 0.00 | 0.00 | 0.00 | 64 | 1017.7 |
| 20260504045320 | 5 | 267 | 1.6 | 3.2 | 0.00 | 0.00 | 0.00 | 66 | 1017.7 |
| 20260504044817 | 5 | 236 | 3.2 | 4.8 | 0.00 | 0.00 | 0.00 | 68 | 1017.8 |
| 20260504044314 | 6 | 227 | 3.2 | 6.4 | 0.00 | 0.00 | 0.00 | 66 | 1017.8 |
| 20260504043812 | 6 | 245 | 3.2 | 4.8 | 0.00 | 0.00 | 0.00 | 63 | 1017.7 |
| 20260504043308 | 6 | 246 | 3.2 | 4.8 | 0.00 | 0.00 | 0.00 | 65 | 1017.9 |
| 20260504042806 | 6 | 244 | 3.2 | 3.2 | 0.00 | 0.00 | 0.00 | 62 | 1017.7 |
| 20260504042304 | 6 | 246 | 1.6 | 3.2 | 0.00 | 0.00 | 0.00 | 66 | 1017.5 |
| 20260504041759 | 6 | 251 | 1.6 | 3.2 | 0.00 | 0.00 | 0.00 | 66 | 1017.8 |
| 20260504041255 | 7 | 243 | 0.0 | 1.6 | 0.00 | 0.00 | 0.00 | 62 | 1017.6 |
| 20260504040751 | 7 | 257 | 1.6 | 3.2 | 0.00 | 0.00 | 0.00 | 60 | 1017.9 |
| 20260504040249 | 6 | 270 | 0.0 | 1.6 | 0.00 | 0.00 | 0.00 | 61 | 1017.5 |
| 20260504035744 | 6 | 250 | 1.6 | 3.2 | 0.00 | 0.00 | 0.00 | 60 | 1017.6 |
| 20260504035242 | 6 | 254 | 3.2 | 3.2 | 0.00 | 0.00 | 0.00 | 62 | 1017.6 |
| 20260504034739 | 6 | 240 | 1.6 | 3.2 | 0.00 | 0.00 | 0.00 | 66 | 1017.5 |
| 20260504034236 | 6 | 246 | 0.0 | 0.0 | 0.00 | 0.00 | 0.00 | 63 | 1017.5 |
| 20260504033734 | 6 | 269 | 0.0 | 0.0 | 0.00 | 0.00 | 0.00 | 64 | 1017.7 |
| 20260504033231 | 7 | 263 | 0.0 | 1.6 | 0.00 | 0.00 | 0.00 | 62 | 1017.6 |
| 20260504032728 | 7 | 259 | 0.0 | 1.6 | 0.00 | 0.00 | 0.00 | 61 | 1017.5 |
| 20260504032225 | 8 | 262 | 1.6 | 1.6 | 0.00 | 0.00 | 0.00 | 58 | 1017.5 |
| 20260504031722 | 8 | 252 | 3.2 | 3.2 | 0.00 | 0.00 | 0.00 | 56 | 1017.4 |
| 20260504031219 | 7 | 244 | 3.2 | 3.2 | 0.00 | 0.00 | 0.00 | 56 | 1017.4 |
| 20260504030715 | 6 | 247 | 3.2 | 3.2 | 0.00 | 0.00 | 0.00 | 62 | 1017.6 |
| 20260504030213 | 6 | 235 | 0.0 | 0.0 | 0.00 | 0.00 | 0.00 | 66 | 1017.4 |
| 20260504025709 | 6 | 246 | 0.0 | 0.0 | 0.00 | 0.00 | 0.00 | 67 | 1017.5 |
| 20260504025205 | 6 | 239 | 0.0 | 1.6 | 0.00 | 0.00 | 0.00 | 63 | 1017.4 |
| 20260504024703 | 6 | 247 | 1.6 | 1.6 | 0.00 | 0.00 | 0.00 | 61 | 1017.5 |
| 20260504024159 | 5 | 236 | 0.0 | 0.0 | 0.00 | 0.00 | 0.00 | 68 | 1017.5 |
| 20260504023656 | 6 | 231 | 0.0 | 0.0 | 0.00 | 0.00 | 0.00 | 72 | 1017.3 |
| 20260504023152 | 7 | 234 | 0.0 | 1.6 | 0.00 | 0.00 | 0.00 | 67 | 1017.2 |
| 20260504022648 | 7 | 235 | 1.6 | 1.6 | 0.00 | 0.00 | 0.00 | 67 | 1017.3 |
| 20260504022144 | 6 | 234 | 0.0 | 0.0 | 0.00 | 0.00 | 0.00 | 66 | 1017.2 |
| 20260504021642 | 6 | 241 | 0.0 | 0.0 | 0.00 | 0.00 | 0.00 | 69 | 1017.1 |
| 20260504021139 | 5 | 227 | 0.0 | 0.0 | 0.00 | 0.00 | 0.00 | 70 | 1017.0 |
| 20260504020636 | 5 | 225 | 0.0 | 0.0 | 0.00 | 0.00 | 0.00 | 77 | 1016.8 |
| 20260504020132 | 6 | 323 | 0.0 | 0.0 | 0.00 | 0.00 | 0.00 | 69 | 1016.6 |
| 20260504015628 | 7 | 8 | 0.0 | 0.0 | 0.00 | 0.00 | 0.00 | 65 | 1016.7 |
| 20260504015125 | 7 | 338 | 0.0 | 0.0 | 0.00 | 0.00 | 0.00 | 65 | 1016.8 |
| 20260504014621 | 8 | 238 | 0.0 | 1.6 | 0.00 | 0.00 | 0.00 | 61 | 1016.8 |
| 20260504014118 | 8 | 220 | 1.6 | 1.6 | 0.00 | 0.00 | 0.00 | 60 | 1016.9 |
| 20260504013615 | 8 | 226 | 3.2 | 3.2 | 0.00 | 0.00 | 0.00 | 60 | 1017.0 |
| 20260504013112 | 8 | 230 | 3.2 | 3.2 | 0.00 | 0.00 | 0.00 | 59 | 1016.8 |
| 20260504012610 | 8 | 225 | 1.6 | 1.6 | 0.00 | 0.00 | 0.00 | 59 | 1016.8 |
| 20260504012108 | 8 | 239 | 1.6 | 3.2 | 0.00 | 0.00 | 0.00 | 58 | 1016.8 |
| 20260504011604 | 8 | 228 | 1.6 | 3.2 | 0.00 | 0.00 | 0.00 | 60 | 1016.8 |
| 20260504011100 | 10 | 243 | 0.0 | 0.0 | 0.00 | 0.00 | 0.00 | 51 | 1016.6 |
| 20260504010556 | 10 | 284 | 0.0 | 0.0 | 0.00 | 0.00 | 0.00 | 46 | 1016.7 |
| 20260504010052 | 10 | 238 | 0.0 | 0.0 | 0.00 | 0.00 | 0.00 | 45 | 1016.6 |
| 20260504005549 | 11 | 253 | 0.0 | 0.0 | 0.00 | 0.00 | 0.00 | 43 | 1016.5 |
| 20260504005046 | 11 | 259 | 0.0 | 0.0 | 0.00 | 0.00 | 0.00 | 43 | 1016.5 |
| 20260504004544 | 11 | 257 | 0.0 | 0.0 | 0.00 | 0.00 | 0.00 | 43 | 1016.5 |
| 20260504004041 | 11 | 272 | 0.0 | 1.6 | 0.00 | 0.00 | 0.00 | 41 | 1016.5 |
| 20260504003537 | 11 | 281 | 0.0 | 0.0 | 0.00 | 0.00 | 0.00 | 40 | 1016.4 |
| 20260504003034 | 12 | 260 | 1.6 | 1.6 | 0.00 | 0.00 | 0.00 | 39 | 1016.4 |
| 20260504002531 | 11 | 244 | 0.0 | 0.0 | 0.00 | 0.00 | 0.00 | 41 | 1016.5 |
| 20260504002028 | 11 | 259 | 0.0 | 0.0 | 0.00 | 0.00 | 0.00 | 41 | 1016.4 |
| 20260504001526 | 11 | 262 | 0.0 | 0.0 | 0.00 | 0.00 | 0.00 | 44 | 1016.2 |
| 20260504001022 | 12 | 264 | 0.0 | 0.0 | 0.00 | 0.00 | 0.00 | 41 | 1016.4 |
| 20260504000520 | 12 | 241 | 0.0 | 0.0 | 0.00 | 0.00 | 0.00 | 39 | 1016.4 |
| 20260504000017 | 13 | 248 | 1.6 | 1.6 | 0.00 | 0.00 | 0.00 | 38 | 1016.4 |
| 20260503235515 | 13 | 258 | 1.6 | 3.2 | 0.00 | 0.00 | 0.00 | 38 | 1016.2 |
| 20260503235011 | 13 | 287 | 3.2 | 3.2 | 0.00 | 0.00 | 0.00 | 39 | 1016.4 |
| 20260503234509 | 13 | 265 | 0.0 | 0.0 | 0.00 | 0.00 | 0.00 | 37 | 1015.9 |
| 20260503234007 | 14 | 265 | 1.6 | 1.6 | 0.00 | 0.00 | 0.00 | 38 | 1016.1 |
| 20260503233503 | 14 | 238 | 1.6 | 3.2 | 0.00 | 0.00 | 0.00 | 36 | 1016.0 |
| 20260503232959 | 14 | 263 | 3.2 | 4.8 | 0.00 | 0.00 | 0.00 | 35 | 1016.0 |
| 20260503232456 | 15 | 277 | 1.6 | 4.8 | 0.00 | 0.00 | 0.00 | 35 | 1016.0 |
| 20260503231954 | 15 | 254 | 1.6 | 4.8 | 0.00 | 0.00 | 0.00 | 33 | 1015.9 |
| 20260503231452 | 15 | 334 | 3.2 | 4.8 | 0.00 | 0.00 | 0.00 | 33 | 1015.8 |
| 20260503230948 | 15 | 258 | 6.4 | 11.3 | 0.00 | 0.00 | 0.00 | 32 | 1015.8 |
| 20260503230444 | 15 | 318 | 6.4 | 9.7 | 0.00 | 0.00 | 0.00 | 32 | 1015.9 |
| 20260503225942 | 15 | 275 | 3.2 | 6.4 | 0.00 | 0.00 | 0.00 | 32 | 1015.9 |
| 20260503225439 | 15 | 305 | 3.2 | 6.4 | 0.00 | 0.00 | 0.00 | 32 | 1015.8 |
| 20260503224934 | 16 | 286 | 4.8 | 11.3 | 0.00 | 0.00 | 0.00 | 31 | 1015.7 |
| 20260503224431 | 16 | 307 | 4.8 | 6.4 | 0.00 | 0.00 | 0.00 | 31 | 1015.8 |
| 20260503223929 | 16 | 238 | 0.0 | 4.8 | 0.00 | 0.00 | 0.00 | 34 | 1015.8 |
| 20260503223427 | 16 | 288 | 6.4 | 11.3 | 0.00 | 0.00 | 0.00 | 30 | 1015.8 |
| 20260503222922 | 16 | 323 | 6.4 | 9.7 | 0.00 | 0.00 | 0.00 | 31 | 1015.7 |
| 20260503222421 | 16 | 258 | 11.3 | 12.9 | 0.00 | 0.00 | 0.00 | 31 | 1015.7 |
| 20260503221919 | 16 | 320 | 3.2 | 6.4 | 0.00 | 0.00 | 0.00 | 31 | 1015.7 |
| 20260503221417 | 16 | 252 | 3.2 | 11.3 | 0.00 | 0.00 | 0.00 | 31 | 1016.0 |
| 20260503220913 | 16 | 238 | 6.4 | 12.9 | 0.00 | 0.00 | 0.00 | 31 | 1016.1 |
| 20260503220410 | 16 | 258 | 4.8 | 9.7 | 0.00 | 0.00 | 0.00 | 33 | 1015.9 |
| 20260503215907 | 16 | 248 | 11.3 | 14.5 | 0.00 | 0.00 | 0.00 | 29 | 1016.1 |
| 20260503215404 | 16 | 320 | 6.4 | 9.7 | 0.00 | 0.00 | 0.00 | 29 | 1015.9 |
| 20260503214901 | 16 | 316 | 4.8 | 11.3 | 0.00 | 0.00 | 0.00 | 33 | 1015.8 |
| 20260503214359 | 17 | 290 | 6.4 | 11.3 | 0.00 | 0.00 | 0.00 | 30 | 1016.0 |
| 20260503213856 | 17 | 236 | 3.2 | 6.4 | 0.00 | 0.00 | 0.00 | 30 | 1015.9 |
| 20260503213354 | 17 | 327 | 3.2 | 11.3 | 0.00 | 0.00 | 0.00 | 31 | 1015.9 |
| 20260503212850 | 17 | 228 | 6.4 | 12.9 | 0.00 | 0.00 | 0.00 | 30 | 1016.0 |
| 20260503212348 | 17 | 253 | 3.2 | 6.4 | 0.00 | 0.00 | 0.00 | 32 | 1015.8 |
| 20260503211845 | 17 | 218 | 4.8 | 9.7 | 0.00 | 0.00 | 0.00 | 31 | 1016.0 |
| 20260503211342 | 17 | 252 | 6.4 | 12.9 | 0.00 | 0.00 | 0.00 | 32 | 1015.9 |
| 20260503210837 | 17 | 358 | 6.4 | 14.5 | 0.00 | 0.00 | 0.00 | 32 | 1016.0 |
| 20260503210334 | 17 | 253 | 6.4 | 9.7 | 0.00 | 0.00 | 0.00 | 32 | 1016.0 |
| 20260503205829 | 17 | 288 | 3.2 | 9.7 | 0.00 | 0.00 | 0.00 | 32 | 1015.7 |
| 20260503205326 | 17 | 252 | 8.0 | 14.5 | 0.00 | 0.00 | 0.00 | 33 | 1015.8 |
| 20260503204823 | 17 | 288 | 3.2 | 11.3 | 0.00 | 0.00 | 0.00 | 31 | 1016.0 |
| 20260503204320 | 17 | 303 | 6.4 | 11.3 | 0.00 | 0.00 | 0.00 | 33 | 1015.9 |
| 20260503203817 | 17 | 276 | 4.8 | 6.4 | 0.00 | 0.00 | 0.00 | 32 | 1015.9 |
| 20260503203315 | 16 | 307 | 8.0 | 16.1 | 0.00 | 0.00 | 0.00 | 31 | 1016.0 |
| 20260503202811 | 17 | 289 | 14.5 | 17.7 | 0.00 | 0.00 | 0.00 | 32 | 1015.9 |
| 20260503202310 | 17 | 256 | 6.4 | 11.3 | 0.00 | 0.00 | 0.00 | 29 | 1016.2 |
| 20260503201807 | 16 | 221 | 6.4 | 14.5 | 0.00 | 0.00 | 0.00 | 31 | 1016.5 |
| 20260503201304 | 16 | 285 | 9.7 | 12.9 | 0.00 | 0.00 | 0.00 | 30 | 1016.6 |
| 20260503200802 | 16 | 326 | 8.0 | 12.9 | 0.00 | 0.00 | 0.00 | 32 | 1016.5 |
| 20260503200257 | 16 | 228 | 4.8 | 11.3 | 0.00 | 0.00 | 0.00 | 31 | 1016.4 |
| 20260503195755 | 16 | 356 | 9.7 | 16.1 | 0.00 | 0.00 | 0.00 | 33 | 1016.6 |
| 20260503195251 | 16 | 347 | 4.8 | 9.7 | 0.00 | 0.00 | 0.00 | 31 | 1016.8 |
| 20260503194749 | 16 | 358 | 9.7 | 14.5 | 0.00 | 0.00 | 0.00 | 32 | 1016.6 |
| 20260503194244 | 17 | 314 | 9.7 | 12.9 | 0.00 | 0.00 | 0.00 | 30 | 1016.8 |
| 20260503193741 | 16 | 325 | 3.2 | 11.3 | 0.00 | 0.00 | 0.00 | 33 | 1016.9 |
| 20260503193237 | 17 | 165 | 6.4 | 11.3 | 0.00 | 0.00 | 0.00 | 30 | 1016.9 |
| 20260503192733 | 17 | 235 | 3.2 | 11.3 | 0.00 | 0.00 | 0.00 | 32 | 1016.8 |
| 20260503192228 | 16 | 313 | 4.8 | 9.7 | 0.00 | 0.00 | 0.00 | 31 | 1017.0 |
| 20260503191725 | 16 | 245 | 3.2 | 4.8 | 0.00 | 0.00 | 0.00 | 32 | 1017.1 |
| 20260503191222 | 16 | 307 | 12.9 | 17.7 | 0.00 | 0.00 | 0.00 | 31 | 1017.3 |
| 20260503190719 | 16 | 260 | 3.2 | 6.4 | 0.00 | 0.00 | 0.00 | 37 | 1017.0 |
| 20260503190215 | 16 | 325 | 6.4 | 14.5 | 0.00 | 0.00 | 0.00 | 34 | 1017.2 |
| 20260503185713 | 16 | 329 | 4.8 | 11.3 | 0.00 | 0.00 | 0.00 | 34 | 1017.3 |
| 20260503185208 | 16 | 346 | 4.8 | 11.3 | 0.00 | 0.00 | 0.00 | 30 | 1017.3 |
| 20260503184703 | 16 | 276 | 1.6 | 14.5 | 0.00 | 0.00 | 0.00 | 40 | 1017.5 |
| 20260503184200 | 16 | 325 | 1.6 | 12.9 | 0.00 | 0.00 | 0.00 | 34 | 1017.6 |
| 20260503183656 | 15 | 317 | 12.9 | 16.1 | 0.00 | 0.00 | 0.00 | 32 | 1017.5 |
| 20260503183153 | 15 | 345 | 14.5 | 16.1 | 0.00 | 0.00 | 0.00 | 33 | 1017.5 |
| 20260503182651 | 15 | 258 | 6.4 | 12.9 | 0.00 | 0.00 | 0.00 | 31 | 1017.5 |
| 20260503182150 | 15 | 334 | 4.8 | 12.9 | 0.00 | 0.00 | 0.00 | 34 | 1017.6 |
| 20260503181646 | 15 | 256 | 6.4 | 9.7 | 0.00 | 0.00 | 0.00 | 35 | 1017.6 |
| 20260503181143 | 15 | 340 | 11.3 | 14.5 | 0.00 | 0.00 | 0.00 | 38 | 1017.7 |
| 20260503180640 | 15 | 322 | 9.7 | 14.5 | 0.00 | 0.00 | 0.00 | 36 | 1017.8 |
| 20260503180138 | 15 | 306 | 14.5 | 16.1 | 0.00 | 0.00 | 0.00 | 34 | 1017.9 |
| 20260503175635 | 15 | 300 | 3.2 | 11.3 | 0.00 | 0.00 | 0.00 | 35 | 1017.7 |
| 20260503175132 | 15 | 293 | 3.2 | 12.9 | 0.00 | 0.00 | 0.00 | 36 | 1017.8 |
| 20260503174628 | 15 | 331 | 12.9 | 14.5 | 0.00 | 0.00 | 0.00 | 36 | 1017.9 |
| 20260503174126 | 15 | 312 | 9.7 | 14.5 | 0.00 | 0.00 | 0.00 | 38 | 1017.9 |
| 20260503173620 | 15 | 276 | 9.7 | 12.9 | 0.00 | 0.00 | 0.00 | 36 | 1017.9 |
| 20260503173117 | 13 | 329 | 1.6 | 14.5 | 0.00 | 0.00 | 0.00 | 37 | 1018.0 |
| 20260503172614 | 14 | 315 | 4.8 | 12.9 | 0.00 | 0.00 | 0.00 | 38 | 1018.1 |
| 20260503172112 | 14 | 4 | 3.2 | 12.9 | 0.00 | 0.00 | 0.00 | 40 | 1018.1 |
| 20260503171608 | 13 | 252 | 8.0 | 9.7 | 0.00 | 0.00 | 0.00 | 40 | 1018.1 |
| 20260503171105 | 13 | 279 | 6.4 | 11.3 | 0.00 | 0.00 | 0.00 | 41 | 1018.1 |
| 20260503170601 | 14 | 241 | 3.2 | 12.9 | 0.00 | 0.00 | 0.00 | 37 | 1018.4 |
| 20260503150954 | 11 | 251 | 6.4 | 12.9 | 0.00 | 0.00 | 0.00 | 47 | 1018.8 |
| 20260503150450 | 11 | 319 | 9.7 | 17.7 | 0.00 | 0.00 | 0.00 | 43 | 1019.0 |
| 20260503131343 | 8 | 275 | 4.8 | 9.7 | 0.00 | 0.00 | 0.00 | 59 | 1018.8 |
| 20260503130841 | 8 | 267 | 3.2 | 9.7 | 0.00 | 0.00 | 0.00 | 59 | 1018.7 |
| 20260503130338 | 8 | 333 | 6.4 | 11.3 | 0.00 | 0.00 | 0.00 | 58 | 1019.0 |
| 20260503110732 | 4 | 291 | 1.6 | 3.2 | 0.00 | 0.00 | 0.00 | 73 | 1018.9 |
| 20260503110229 | 3 | 8 | 0.0 | 0.0 | 0.00 | 0.00 | 0.00 | 77 | 1018.8 |
| 20260503100155 | 1 | 263 | 0.0 | 0.0 | 0.00 | 0.00 | 0.00 | 83 | 1018.3 |
| 20260503090115 | 2 | 220 | 1.6 | 1.6 | 0.00 | 0.00 | 0.00 | 81 | 1017.8 |
| 20260503081550 | 3 | 246 | 0.0 | 3.2 | 0.00 | 0.00 | 0.00 | 77 | 1017.7 |
| 20260503081048 | 4 | 265 | 0.0 | 0.0 | 0.00 | 0.00 | 0.00 | 76 | 1017.6 |
| 20260503080544 | 4 | 263 | 0.0 | 1.6 | 0.00 | 0.00 | 0.00 | 76 | 1017.6 |